[[{"header":{"parameterUnit":"m.s-1","parameterCategory":2,"la1":30.2991,"la2":30.254,"lo1":-89.0895,"lo2":-89.0444,"dy":0.0017,"dx":0.0017,"nx":28,"ny":28,"refTime":"2024-04-09T09:00:00:Z","depth":"0","parameterNumber":2,"parameterNumberName":"U-component_of_CURRENTS"},"data":[0,0,0,0,0,0,0,0,0,0,0,0,0,0,0,0,0,0,0,0,0,0,0,0,0,0,0,0,0,0,0,0,0,0,0,0,0,0,0,0,0,0,0,0,0,0,0,0,0,0,0,0,0,0,0,0,0,0,0.3598,0.3599,0,0.3608,0.3607,0.3607,0.3579,0.3578,0.3578,0.3577,0.3574,0.3574,0.3575,0,0,0,0,0,0,0,0,0,0,0,0,0,0.3601,0.3601,0.3598,0.3599,0.3599,0.3608,0.3607,0.3607,0.3579,0.3578,0.3577,0.3577,0.3573,0.3574,0.3575,0,0,0,0,0,0,0,0,0,0,0,0,0,0.3602,0.3601,0.3598,0.3588,0.3587,0.3608,0.3607,0.3607,0.3579,0.3578,0.3577,0.3576,0.3573,0.3574,0.3575,0.3599,0,0,0.3577,0.3577,0,0,0,0,0,0,0,0,0.3602,0.3602,0.3589,0.3588,0.3588,0.3593,0.3607,0.3605,0.3579,0.358,0.3577,0.3576,0.3581,0.3581,0.3582,0.3599,0.3599,0.3577,0.3578,0.3578,0.3578,0,0,0,0,0,0,0,0.3602,0.3601,0.36,0.3589,0.3589,0.3598,0.3596,0.3607,0.3584,0.358,0.3578,0.3583,0.358,0.3581,0.3582,0.3599,0.3577,0.3578,0.3578,0.3579,0.3663,0.3665,0,0,0,0,0,0,0.3604,0.3601,0.3599,0.36,0.3595,0.3599,0.3597,0.359,0.3584,0.3583,0.3584,0.3582,0.3581,0.3581,0.3582,0.3626,0.3578,0.3579,0.3579,0.3661,0.3664,0.3666,0,0,0,0,0,0,0.3604,0.3603,0.3599,0.3603,0.3604,0.36,0.3593,0.3591,0.3597,0.3588,0.3586,0.3592,0.358,0.358,0.3603,0.3625,0.3579,0.358,0.3659,0.3662,0.3665,0.3705,0,0,0,0,0,0,0.3604,0.3603,0.3605,0.3603,0.3604,0.362,0.3594,0.3592,0.3603,0.36,0.3595,0.3593,0.3579,0.3602,0.3604,0.3625,0.358,0.3657,0.3661,0.3664,0.3702,0.3709,0.3715,0,0,0,0,0,0.3604,0.3608,0.3605,0.3605,0.3604,0.3621,0.3623,0.3615,0.3604,0.3615,0.3613,0.3593,0.3624,0.3604,0.3606,0.3628,0.3655,0.366,0.3663,0.3699,0.3707,0.3715,0,0,0,0,0,0,0.361,0.3605,0.3602,0.3604,0.3618,0.3618,0.3628,0.3625,0.3632,0.3629,0.3615,0.3614,0.3643,0.3637,0.3615,0.3665,0.3638,0.3642,0.3664,0.3672,0.3679,0.367,0.3581,0,0,0,0,0,0.3615,0.3613,0.3619,0.3623,0.3631,0.3633,0.3641,0.3638,0.3643,0.3645,0.3641,0.3646,0.3662,0.3667,0.3677,0.3705,0.3716,0.3723,0.373,0.3735,0.3732,0.378,0.3791,0.3679,0.3679,0.3679,0,0,0.3616,0.3616,0.3614,0.3625,0.3631,0.3645,0.3635,0.3651,0.366,0.3645,0.3659,0.367,0.3676,0.3705,0.3717,0.3701,0.3778,0.374,0.3745,0.3738,0.3785,0.3796,0.3806,0.3681,0.3681,0.368,0,0,0.3616,0.3623,0.362,0.3636,0.3654,0.3662,0.3671,0.3681,0.3684,0.3708,0.3702,0.3728,0.3744,0.3754,0.3761,0.3816,0.3814,0.3824,0.3847,0.3895,0.3904,0.3912,0.3956,0.3967,0.3825,0.3825,0.3825,0,0.3621,0.3613,0.3627,0.3636,0.3646,0.3671,0.3677,0.3697,0.3712,0.3724,0.3717,0.3763,0.3766,0.3806,0.3823,0.3829,0.3856,0.3811,0.3902,0.391,0.3918,0.3961,0.3973,0.3827,0.3827,0.3827,0.3827,0,0.3613,0.3619,0.3627,0.364,0.3659,0.3675,0.3702,0.3725,0.3737,0.3756,0.38,0.3816,0.3842,0.3856,0.3852,0.3914,0.3917,0.3907,0.3877,0.3932,0.3974,0.3986,0.3831,0.383,0.3829,0.3829,0,0,0.3585,0.3612,0.3614,0.3617,0.366,0.3668,0.3706,0.3741,0.3766,0.3801,0.383,0.3874,0.3895,0.3906,0.3919,0.3955,0.4037,0.3955,0.3957,0.399,0.415,0.4176,0.4191,0.4047,0.4049,0.4051,0.4163,0,0.3573,0.3579,0.3599,0.3614,0.362,0.3662,0.3696,0.3738,0.3777,0.382,0.3864,0.3903,0.3914,0.3932,0.3978,0.4021,0.4069,0.4007,0.4099,0.4102,0.4111,0.4206,0.4205,0.4307,0.4175,0.4177,0.4178,0,0.3546,0.3556,0.3558,0.3592,0.3599,0.3616,0.3667,0.3703,0.3787,0.3825,0.3888,0.3926,0.4001,0.399,0.4111,0.4076,0.4119,0.4148,0.4153,0.4167,0.415,0.4229,0.4334,0.4289,0.4196,0.4195,0.4194,0,0.3494,0.3523,0.3517,0.3529,0.3579,0.3586,0.3619,0.3697,0.3737,0.3829,0.3876,0.397,0.4027,0.4095,0.4183,0.4152,0.431,0.4271,0.4336,0.4337,0.4348,0.4347,0.441,0.4353,0.4353,0.4353,0.4352,0,0.3462,0.3457,0.349,0.3486,0.3492,0.3543,0.3573,0.3628,0.3719,0.378,0.3875,0.3946,0.4059,0.4163,0.4212,0.4339,0.4348,0.4364,0.438,0.4364,0.4364,0.4332,0.4204,0.4357,0.4356,0.4355,0.4354,0,0.3399,0.3423,0.3417,0.3455,0.3461,0.3465,0.3532,0.3565,0.3672,0.3752,0.3785,0.3956,0.4109,0.4221,0.4353,0.4394,0.435,0.4517,0.4495,0.4506,0.4497,0.4369,0.3966,0.3867,0.46,0.4601,0.4602,0,0.3363,0.3354,0.3373,0.3369,0.3379,0.34,0.342,0.352,0.3569,0.3756,0.3791,0.3979,0.4099,0.4334,0.4468,0.4599,0.4387,0.4651,0.4583,0.4524,0.4393,0.3942,0.3855,0.4619,0.462,0.4621,0.4622,0,0.3301,0.3308,0.331,0.3299,0.33,0.3313,0.3354,0.3381,0.3518,0.3608,0.375,0.386,0.4155,0.4332,0.4549,0.4622,0.4396,0.4675,0.4627,0.4428,0.3922,0.383,0.4507,0.4631,0.463,0.463,0.4629,0.4629,0.3255,0.324,0.3241,0.3216,0.322,0.3209,0.3182,0.3265,0.3328,0.3438,0.3635,0.3785,0.4189,0.4508,0.4556,0.4719,0.4412,0.4692,0.455,0.4104,0.3957,0.4653,0.478,0.478,0.478,0.478,0.478,0,0.3183,0.3171,0.3156,0.311,0.3064,0.3105,0.3118,0.3083,0.3108,0.3309,0.3434,0.3828,0.4116,0.4407,0.4718,0.464,0.433,0.4555,0.399,0.393,0.4657,0.4628,0.4712,0.4712,0.4712,0.4712,0.4712,0.4712,0.3145,0.3095,0.3073,0.2958,0.2925,0.2822,0.2801,0.2792,0.2893,0.3043,0.3243,0.3462,0.3927,0.4303,0.4457,0.4426,0.4021,0.3791,0.3665,0.4334,0.4336,0.4339,0.4292,0.4304,0.4303,0.2855,0.2844,0.2836]},{"header":{"parameterUnit":"m.s-1","parameterCategory":2,"la1":30.2991,"la2":30.254,"lo1":-89.0895,"lo2":-89.0444,"dy":0.0017,"dx":0.0017,"nx":28,"ny":28,"refTime":"2024-04-09T09:00:00:Z","depth":"0","parameterNumber":3,"parameterNumberName":"V-component_of_CURRENTS"},"data":[0,0,0,0,0,0,0,0,0,0,0,0,0,0,0,0,0,0,0,0,0,0,0,0,0,0,0,0,0,0,0,0,0,0,0,0,0,0,0,0,0,0,0,0,0,0,0,0,0,0,0,0,0,0,0,0,0,0,0.0478,0.0476,0,0.0367,0.0365,0.0364,0.0291,0.0291,0.029,0.029,0.0144,0.0141,0.0137,0,0,0,0,0,0,0,0,0,0,0,0,0,0.0581,0.0579,0.0478,0.0476,0.0475,0.0367,0.0365,0.0363,0.0291,0.0291,0.029,0.029,0.0146,0.0141,0.0137,0,0,0,0,0,0,0,0,0,0,0,0,0,0.0508,0.0579,0.0478,0.0427,0.0422,0.0367,0.0365,0.0363,0.0291,0.0291,0.029,0.029,0.0147,0.0142,0.0137,0.0113,0,0,0.012,0.0118,0,0,0,0,0,0,0,0,0.0512,0.0504,0.0436,0.0431,0.0424,0.0344,0.0348,0.0278,0.0291,0.0339,0.029,0.0289,0.0209,0.0199,0.0177,0.0106,0.01,0.012,0.0116,0.0114,0.0113,0,0,0,0,0,0,0,0.0517,0.0508,0.0432,0.0435,0.0428,0.0394,0.0384,0.0334,0.0276,0.0335,0.033,0.032,0.0206,0.0182,0.0173,0.0098,0.012,0.0115,0.0112,0.011,0.0001,0.0001,0,0,0,0,0,0,0.0537,0.0513,0.0435,0.0429,0.047,0.0393,0.0381,0.0369,0.0277,0.0264,0.0321,0.0317,0.0192,0.0179,0.0168,0.015,0.0114,0.0109,0.0106,0.0001,0.0001,0.0002,0,0,0,0,0,0,0.054,0.0531,0.044,0.047,0.0456,0.0392,0.0379,0.0367,0.0346,0.0267,0.0252,0.0313,0.0191,0.0175,0.0133,0.0143,0.0107,0.0102,0.0,0.0001,0.0001,0.0105,0,0,0,0,0,0,0.0543,0.0533,0.0533,0.0471,0.0455,0.0418,0.0379,0.0365,0.0341,0.0336,0.0255,0.0241,0.0189,0.0141,0.0127,0.0135,0.0098,-0.0,0.0001,0.0001,0.0101,0.0109,0.0115,0,0,0,0,0,0.0547,0.0551,0.0533,0.0524,0.0456,0.0418,0.0407,0.0359,0.0342,0.0338,0.0286,0.0244,0.0135,0.0137,0.0121,0.0128,-0.0,0.0,0.0001,0.0098,0.0107,0.0115,0,0,0,0,0,0,0.0595,0.0543,0.0521,0.0509,0.0472,0.0407,0.0401,0.0368,0.0323,0.0321,0.0247,0.0229,0.0197,0.0147,0.0151,0.0097,0.0061,0.0058,0.014,0.0148,0.0155,0.0186,0.0093,0,0,0,0,0,0.0608,0.0598,0.0542,0.0535,0.0521,0.0464,0.0443,0.0413,0.0365,0.0344,0.029,0.0233,0.0186,0.0157,0.0109,0.0078,0.0041,0.0071,0.0078,0.0085,0.0098,0.0048,0.0053,0.0004,0.0004,0.0004,0,0,0.0625,0.0596,0.0589,0.0545,0.0514,0.0504,0.045,0.043,0.0421,0.0336,0.0312,0.0258,0.0185,0.0153,0.0134,0.0113,0.0082,0.0086,0.0092,0.0102,0.0049,0.0054,0.0059,0.0005,0.0004,0.0004,0,0,0.0662,0.0631,0.0638,0.0613,0.0575,0.054,0.054,0.0483,0.0458,0.0427,0.0368,0.0323,0.0248,0.0199,0.0164,0.0181,0.0125,0.0165,0.0221,0.0173,0.0177,0.018,0.0156,0.0156,0.0164,0.0165,0.0165,0,0.0689,0.0684,0.0635,0.0638,0.0628,0.0565,0.0575,0.054,0.0477,0.0465,0.0435,0.0336,0.0271,0.0233,0.0237,0.0198,0.0172,0.0197,0.0184,0.0186,0.0188,0.0162,0.0161,0.017,0.0169,0.0169,0.0168,0,0.0728,0.0727,0.0733,0.0716,0.0698,0.0697,0.0647,0.063,0.0594,0.0556,0.0515,0.0427,0.0369,0.0338,0.029,0.0269,0.025,0.0205,0.0169,0.0199,0.017,0.0167,0.0177,0.0175,0.0174,0.0172,0,0,0.0783,0.0766,0.0768,0.0776,0.0741,0.0732,0.0727,0.0702,0.0708,0.0639,0.0637,0.0543,0.0498,0.0456,0.0386,0.0339,0.0321,0.0286,0.0281,0.0276,0.0239,0.0268,0.0266,0.0277,0.0276,0.0276,0.0221,0,0.0833,0.0862,0.0834,0.0863,0.0876,0.0827,0.0832,0.0802,0.0764,0.0746,0.0656,0.0623,0.0541,0.0518,0.046,0.0355,0.0315,0.0342,0.0199,0.0195,0.0227,0.0264,0.0414,0.0381,0.0218,0.0217,0.0216,0,0.0881,0.0895,0.0935,0.0944,0.0946,0.095,0.095,0.0948,0.0907,0.0879,0.0828,0.0757,0.0682,0.0606,0.0456,0.048,0.0377,0.0292,0.0286,0.0277,0.0218,0.0318,0.0381,0.0274,0.0211,0.0211,0.0212,0,0.0944,0.0965,0.1002,0.1003,0.1003,0.1013,0.1014,0.0991,0.101,0.0967,0.0974,0.0864,0.0823,0.0675,0.0503,0.0478,0.0346,0.0279,0.0212,0.0213,0.0295,0.0304,0.0249,0.0182,0.0182,0.0183,0.0183,0,0.1004,0.1032,0.1035,0.1053,0.1108,0.1083,0.1134,0.1119,0.1123,0.117,0.1053,0.1067,0.0839,0.0733,0.0555,0.0396,0.0383,0.0243,0.0205,0.0336,0.0349,0.022,0.0175,0.018,0.0181,0.0181,0.0182,0,0.106,0.1063,0.1108,0.1124,0.1137,0.1177,0.122,0.1258,0.1252,0.1311,0.1307,0.1221,0.11,0.0877,0.0649,0.0488,0.0295,0.0251,0.0438,0.0422,0.0255,0.0213,0.0143,0.0129,0.0171,0.0172,0.0172,0,0.1091,0.112,0.1165,0.12,0.1207,0.1262,0.1308,0.1323,0.1376,0.1421,0.1463,0.1377,0.1351,0.1041,0.0766,0.0491,0.0354,0.0408,0.0374,0.029,0.0212,0.0167,0.0157,0.0525,0.0528,0.053,0.0533,0,0.115,0.1162,0.1197,0.1272,0.1324,0.1397,0.1464,0.1534,0.158,0.1649,0.174,0.1734,0.1495,0.133,0.0951,0.0733,0.0429,0.0453,0.0317,0.0461,0.0459,0.0415,0.0516,0.0556,0.0554,0.0552,0.0551,0.055,0.1193,0.1232,0.1278,0.135,0.1419,0.1524,0.1607,0.1703,0.1837,0.1993,0.1991,0.2118,0.1894,0.143,0.106,0.0629,0.0586,0.0514,0.0463,0.0415,0.0435,0.0601,0.0618,0.0616,0.0614,0.0612,0.0611,0,0.1254,0.129,0.1351,0.1441,0.1527,0.1554,0.1708,0.1818,0.2007,0.2236,0.2368,0.2566,0.2188,0.1748,0.1189,0.077,0.0579,0.0532,0.051,0.0489,0.0606,0.0652,0.0739,0.0739,0.0739,0.0739,0.0739,0.0739,0.1287,0.1355,0.1382,0.152,0.1586,0.1731,0.1835,0.2018,0.2236,0.2638,0.2951,0.3146,0.3095,0.1854,0.1055,0.0788,0.0532,0.0461,0.0278,0.0362,0.0355,0.0349,0.0379,0.0406,0.0406,0.0247,0.0245,0.0244]}],[{"header":{"parameterUnit":"m.s-1","parameterCategory":2,"la1":30.2991,"la2":30.254,"lo1":-89.0895,"lo2":-89.0444,"dy":0.0017,"dx":0.0017,"nx":28,"ny":28,"refTime":"2024-04-09T09:00:00:Z","depth":"2","parameterNumber":2,"parameterNumberName":"U-component_of_CURRENTS"},"data":[0,0,0,0,0,0,0,0,0,0,0,0,0,0,0,0,0,0,0,0,0,0,0,0,0,0,0,0,0,0,0,0,0,0,0,0,0,0,0,0,0,0,0,0,0,0,0,0,0,0,0,0,0,0,0,0,0,0,0.359,0.359,0,0.3599,0.3599,0.3599,0.3572,0.3571,0.357,0.357,0.3568,0.3568,0.3569,0,0,0,0,0,0,0,0,0,0,0,0,0,0.3593,0.3592,0.359,0.359,0.3591,0.3599,0.3599,0.3599,0.3572,0.3571,0.357,0.357,0.3568,0.3568,0.3569,0,0,0,0,0,0,0,0,0,0,0,0,0,0.3594,0.3592,0.359,0.358,0.3579,0.3599,0.3599,0.3599,0.3572,0.3571,0.357,0.3569,0.3567,0.3568,0.3569,0.3593,0,0,0.3571,0.3572,0,0,0,0,0,0,0,0,0.3594,0.3593,0.3581,0.358,0.358,0.3585,0.36,0.3597,0.3572,0.3572,0.357,0.3569,0.3575,0.3575,0.3576,0.3593,0.3593,0.3572,0.3572,0.3572,0.3573,0,0,0,0,0,0,0,0.3593,0.3593,0.3591,0.3581,0.3581,0.359,0.3588,0.3599,0.3577,0.3572,0.3571,0.3576,0.3574,0.3575,0.3576,0.3593,0.3571,0.3572,0.3573,0.3573,0.3658,0.366,0,0,0,0,0,0,0.3596,0.3593,0.3591,0.3592,0.3587,0.3591,0.3589,0.3583,0.3577,0.3576,0.3577,0.3574,0.3574,0.3575,0.3575,0.362,0.3572,0.3573,0.3574,0.3656,0.3658,0.366,0,0,0,0,0,0,0.3595,0.3595,0.3591,0.3595,0.3595,0.3592,0.3585,0.3583,0.359,0.3581,0.3579,0.3585,0.3573,0.3574,0.3597,0.3619,0.3573,0.3574,0.3654,0.3657,0.3659,0.37,0,0,0,0,0,0,0.3595,0.3594,0.3597,0.3595,0.3595,0.3612,0.3586,0.3584,0.3595,0.3592,0.3588,0.3586,0.3573,0.3596,0.3598,0.362,0.3575,0.3652,0.3655,0.3658,0.3696,0.3703,0.371,0,0,0,0,0,0.3595,0.3599,0.3596,0.3597,0.3596,0.3613,0.3615,0.3607,0.3597,0.3608,0.3606,0.3587,0.3618,0.3598,0.36,0.3622,0.365,0.3654,0.3658,0.3693,0.3702,0.3709,0,0,0,0,0,0,0.3602,0.3597,0.3594,0.3596,0.361,0.3609,0.362,0.3617,0.3625,0.3622,0.3608,0.3607,0.3637,0.3631,0.3609,0.366,0.3632,0.3637,0.3658,0.3667,0.3673,0.3665,0.3576,0,0,0,0,0,0.3606,0.3604,0.3611,0.3615,0.3623,0.3625,0.3633,0.3631,0.3636,0.3637,0.3634,0.3639,0.3656,0.3661,0.3671,0.3699,0.3711,0.3717,0.3724,0.373,0.3726,0.3774,0.3785,0.3673,0.3673,0.3673,0,0,0.3608,0.3608,0.3606,0.3617,0.3623,0.3637,0.3627,0.3643,0.3653,0.3638,0.3652,0.3664,0.367,0.3699,0.3711,0.3695,0.3772,0.3735,0.3739,0.3733,0.378,0.379,0.38,0.3676,0.3676,0.3675,0,0,0.3608,0.3615,0.3612,0.3628,0.3646,0.3655,0.3664,0.3673,0.3677,0.3701,0.3695,0.3722,0.3738,0.3748,0.3755,0.381,0.3808,0.3819,0.3841,0.3888,0.3898,0.3906,0.3949,0.3961,0.3819,0.3819,0.3819,0,0.3613,0.3605,0.3619,0.3628,0.3639,0.3664,0.367,0.369,0.3705,0.3717,0.371,0.3756,0.376,0.38,0.3817,0.3823,0.385,0.3806,0.3896,0.3904,0.3912,0.3954,0.3966,0.3821,0.3821,0.3821,0.3821,0,0.3605,0.3612,0.3619,0.3632,0.3651,0.3668,0.3695,0.3718,0.373,0.3749,0.3793,0.381,0.3836,0.3849,0.3846,0.3907,0.3911,0.39,0.3871,0.3925,0.3967,0.3979,0.3825,0.3824,0.3823,0.3823,0,0,0.3578,0.3605,0.3607,0.361,0.3653,0.3661,0.3699,0.3734,0.3759,0.3794,0.3823,0.3867,0.3889,0.39,0.3912,0.3949,0.403,0.3949,0.395,0.3983,0.4143,0.4166,0.4181,0.404,0.4042,0.4044,0.4155,0,0.3566,0.3572,0.3593,0.3607,0.3613,0.3655,0.3689,0.3731,0.3771,0.3813,0.3857,0.3896,0.3907,0.3925,0.3971,0.4015,0.4062,0.4001,0.4091,0.4094,0.4101,0.4196,0.3755,0.382,0.4166,0.4168,0.417,0,0.354,0.355,0.3552,0.3585,0.3593,0.361,0.3661,0.3697,0.3781,0.3818,0.3881,0.3919,0.3994,0.3983,0.4104,0.4069,0.4112,0.4141,0.4146,0.4157,0.414,0.382,0.3828,0.4189,0.4188,0.4186,0.4185,0,0.3488,0.3517,0.3512,0.3524,0.3573,0.358,0.3614,0.3691,0.3731,0.3823,0.387,0.3962,0.402,0.4088,0.4175,0.4145,0.4301,0.4262,0.4325,0.4326,0.3963,0.3931,0.4344,0.4344,0.4344,0.4343,0.4343,0,0.3456,0.3452,0.3484,0.3481,0.3487,0.3538,0.3568,0.3623,0.3713,0.3774,0.3869,0.3939,0.4052,0.4154,0.4204,0.4328,0.4338,0.4353,0.4368,0.397,0.3939,0.4257,0.4245,0.4348,0.4347,0.4346,0.4345,0,0.3394,0.3418,0.3412,0.345,0.3457,0.346,0.3527,0.3561,0.3667,0.3746,0.378,0.3949,0.41,0.4212,0.4342,0.4382,0.4471,0.4504,0.4044,0.4006,0.4451,0.444,0.458,0.4582,0.4583,0.4585,0.4586,0,0.3358,0.3349,0.3369,0.3365,0.3375,0.3396,0.3417,0.3516,0.3565,0.375,0.3785,0.3971,0.4075,0.4307,0.4326,0.4423,0.455,0.4177,0.405,0.448,0.4481,0.4467,0.4454,0.3569,0.3562,0.3556,0.3552,0,0.3297,0.3304,0.3306,0.3295,0.3297,0.331,0.3351,0.3378,0.3514,0.3588,0.3729,0.3822,0.401,0.3938,0.4109,0.4108,0.4126,0.4072,0.461,0.3621,0.3549,0.3543,0.3559,0.3499,0.3504,0.3508,0.3511,0.3513,0.3251,0.3236,0.3237,0.3213,0.3217,0.3207,0.3179,0.3211,0.3252,0.3286,0.3519,0.3529,0.3636,0.3653,0.3599,0.3583,0.3893,0.378,0.3787,0.3803,0.371,0.3649,0.3599,0.3604,0.3609,0.3613,0.3617,0,0.315,0.3168,0.3153,0.3108,0.303,0.3103,0.3115,0.3027,0.2968,0.3053,0.3092,0.292,0.2887,0.3025,0.2877,0.2978,0.2801,0.2926,0.2638,0.2696,0.2747,0.2587,0.2185,0.218,0.2176,0.2172,0,0,0.3105,0.3041,0.3019,0.2891,0.2885,0.2745,0.2723,0.2631,0.2626,0.2528,0.2503,0.2666,0.2906,0.247,0.246,0.2306,0.2457,0.2201,0.3349,0.3062,0.3106,0.3251,0.3078,0,0,0,0,0]},{"header":{"parameterUnit":"m.s-1","parameterCategory":2,"la1":30.2991,"la2":30.254,"lo1":-89.0895,"lo2":-89.0444,"dy":0.0017,"dx":0.0017,"nx":28,"ny":28,"refTime":"2024-04-09T09:00:00:Z","depth":"2","parameterNumber":3,"parameterNumberName":"V-component_of_CURRENTS"},"data":[0,0,0,0,0,0,0,0,0,0,0,0,0,0,0,0,0,0,0,0,0,0,0,0,0,0,0,0,0,0,0,0,0,0,0,0,0,0,0,0,0,0,0,0,0,0,0,0,0,0,0,0,0,0,0,0,0,0,0.0439,0.0438,0,0.0329,0.0327,0.0326,0.0255,0.0254,0.0254,0.0254,0.0109,0.0106,0.0102,0,0,0,0,0,0,0,0,0,0,0,0,0,0.0542,0.0541,0.0439,0.0438,0.0437,0.0329,0.0327,0.0326,0.0255,0.0254,0.0254,0.0254,0.011,0.0106,0.0102,0,0,0,0,0,0,0,0,0,0,0,0,0,0.047,0.054,0.044,0.039,0.0384,0.0329,0.0327,0.0325,0.0255,0.0254,0.0254,0.0254,0.0112,0.0107,0.0101,0.0077,0,0,0.0085,0.0083,0,0,0,0,0,0,0,0,0.0474,0.0466,0.0398,0.0393,0.0387,0.0307,0.0311,0.0241,0.0255,0.0302,0.0254,0.0253,0.0174,0.0163,0.0141,0.007,0.0064,0.0084,0.0081,0.0079,0.0077,0,0,0,0,0,0,0,0.0479,0.047,0.0394,0.0397,0.039,0.0357,0.0346,0.0297,0.024,0.0298,0.0293,0.0284,0.017,0.0147,0.0137,0.0062,0.0085,0.008,0.0077,0.0074,-0.0035,-0.0034,0,0,0,0,0,0,0.0499,0.0475,0.0397,0.0391,0.0432,0.0356,0.0344,0.0331,0.0241,0.0227,0.0284,0.0281,0.0156,0.0144,0.0132,0.0114,0.0079,0.0074,0.0071,-0.0035,-0.0035,-0.0034,0,0,0,0,0,0,0.0501,0.0493,0.0402,0.0432,0.0418,0.0355,0.0341,0.033,0.0309,0.0231,0.0216,0.0276,0.0155,0.014,0.0097,0.0108,0.0072,0.0067,-0.0035,-0.0035,-0.0034,0.0068,0,0,0,0,0,0,0.0505,0.0494,0.0494,0.0433,0.0417,0.038,0.0341,0.0328,0.0305,0.0299,0.0219,0.0205,0.0154,0.0106,0.0092,0.01,0.0062,-0.0036,-0.0035,-0.0035,0.0065,0.0072,0.0079,0,0,0,0,0,0.0509,0.0513,0.0495,0.0486,0.0418,0.038,0.0369,0.0321,0.0305,0.0301,0.025,0.0208,0.0099,0.0102,0.0085,0.0092,-0.0036,-0.0035,-0.0035,0.0061,0.0071,0.0079,0,0,0,0,0,0,0.0557,0.0504,0.0483,0.047,0.0434,0.0369,0.0363,0.0331,0.0286,0.0284,0.021,0.0193,0.0161,0.0111,0.0116,0.0062,0.0025,0.0023,0.0104,0.0112,0.0119,0.015,0.0058,0,0,0,0,0,0.0569,0.0559,0.0503,0.0496,0.0482,0.0425,0.0405,0.0375,0.0327,0.0307,0.0253,0.0196,0.015,0.0121,0.0073,0.0041,0.0005,0.0034,0.0042,0.0048,0.0062,0.0011,0.0016,-0.0032,-0.0032,-0.0032,0,0,0.0586,0.0557,0.0551,0.0506,0.0475,0.0465,0.0412,0.0392,0.0383,0.0299,0.0275,0.0221,0.0148,0.0117,0.0097,0.0077,0.0045,0.0049,0.0055,0.0065,0.0013,0.0017,0.0022,-0.0031,-0.0031,-0.0031,0,0,0.0623,0.0592,0.0598,0.0574,0.0536,0.0501,0.0502,0.0445,0.042,0.0388,0.033,0.0285,0.0211,0.0162,0.0127,0.0143,0.0088,0.0127,0.0183,0.0135,0.0139,0.0142,0.0118,0.0118,0.0127,0.0127,0.0127,0,0.065,0.0645,0.0596,0.0599,0.0588,0.0526,0.0536,0.0501,0.0439,0.0427,0.0397,0.0298,0.0233,0.0195,0.0199,0.016,0.0134,0.016,0.0146,0.0148,0.0149,0.0124,0.0122,0.0132,0.0132,0.0131,0.0131,0,0.0688,0.0687,0.0692,0.0675,0.0657,0.0656,0.0607,0.059,0.0554,0.0516,0.0475,0.0387,0.033,0.0299,0.0252,0.023,0.0211,0.0167,0.0131,0.0161,0.0132,0.0128,0.0139,0.0138,0.0136,0.0135,0,0,0.0743,0.0725,0.0727,0.0735,0.07,0.0691,0.0686,0.066,0.0666,0.0597,0.0595,0.0502,0.0458,0.0416,0.0346,0.0299,0.0281,0.0247,0.0242,0.0237,0.0199,0.0227,0.0225,0.0237,0.0237,0.0237,0.0181,0,0.0792,0.0821,0.0792,0.0821,0.0833,0.0784,0.0789,0.0759,0.0721,0.0703,0.0614,0.0581,0.05,0.0477,0.042,0.0315,0.0275,0.0302,0.0159,0.0156,0.0187,0.0223,0.0133,0.008,0.0178,0.0177,0.0177,0,0.084,0.0853,0.0893,0.0901,0.0903,0.0907,0.0906,0.0904,0.0863,0.0835,0.0785,0.0714,0.0639,0.0564,0.0414,0.0438,0.0337,0.0252,0.0246,0.0236,0.0178,0.006,0.0069,0.017,0.0171,0.0171,0.0172,0,0.0902,0.0922,0.0959,0.096,0.0959,0.0969,0.0971,0.0947,0.0965,0.0922,0.093,0.0819,0.0779,0.0632,0.0461,0.0437,0.0305,0.0238,0.0171,0.0172,0.0049,0.0041,0.0141,0.0141,0.0141,0.0142,0.0142,0,0.0962,0.099,0.0992,0.101,0.1065,0.104,0.109,0.1075,0.1078,0.1125,0.1008,0.1021,0.0795,0.0689,0.0513,0.0354,0.0341,0.0201,0.0163,0.0085,0.0081,0.0114,0.0112,0.014,0.014,0.014,0.0141,0,0.1018,0.102,0.1065,0.1081,0.1094,0.1134,0.1176,0.1214,0.1208,0.1265,0.1262,0.1175,0.1054,0.0833,0.0604,0.0444,0.0266,0.0209,0.0155,0.0113,0.0151,0.0154,0.0127,0.0128,0.0128,0.0129,0.0129,0,0.1049,0.1078,0.1122,0.1157,0.1165,0.122,0.1265,0.1279,0.1331,0.1374,0.1416,0.1329,0.1285,0.0975,0.0629,0.0333,0.033,0.0115,0.0048,0.0186,0.0151,0.0153,0.0156,-0.0084,-0.0085,-0.0087,-0.0087,0,0.1108,0.112,0.1155,0.123,0.1282,0.1354,0.142,0.1489,0.1534,0.1576,0.1664,0.164,0.1342,0.0993,0.0585,0.0377,0.015,0.0088,0.0217,-0.0038,-0.001,-0.0045,-0.0037,-0.0098,-0.0097,-0.0096,-0.0095,-0.0095,0.1151,0.119,0.1236,0.1308,0.1377,0.1481,0.1563,0.1548,0.1641,0.163,0.1745,0.1632,0.1345,0.0734,0.0426,0.0078,0.0118,-0.0031,-0.003,-0.0027,-0.0013,0.0017,-0.0063,-0.0061,-0.006,-0.0059,-0.0059,0,0.1168,0.1249,0.131,0.1399,0.1423,0.1513,0.1664,0.161,0.1621,0.1612,0.1594,0.1307,0.0964,0.0674,0.011,-0.0151,-0.0225,-0.0201,-0.0267,-0.0255,-0.0246,-0.0245,-0.0355,-0.0356,-0.0357,-0.0358,0,0,0.1189,0.1234,0.126,0.136,0.1469,0.148,0.1579,0.1495,0.1442,0.1323,0.1278,0.1218,0.0993,0.0541,0.0175,-0.0104,-0.0122,-0.0161,0.009,0.0059,0.0072,-0.0146,-0.0131,0,0,0,0,0]}],[{"header":{"parameterUnit":"m.s-1","parameterCategory":2,"la1":30.2991,"la2":30.254,"lo1":-89.0895,"lo2":-89.0444,"dy":0.0017,"dx":0.0017,"nx":28,"ny":28,"refTime":"2024-04-09T09:00:00:Z","depth":"4","parameterNumber":2,"parameterNumberName":"U-component_of_CURRENTS"},"data":[0,0,0,0,0,0,0,0,0,0,0,0,0,0,0,0,0,0,0,0,0,0,0,0,0,0,0,0,0,0,0,0,0,0,0,0,0,0,0,0,0,0,0,0,0,0,0,0,0,0,0,0,0,0,0,0,0,0,0.2079,0.208,0,0.2143,0.2144,0.2144,0.22,0.2201,0.2202,0.2202,0.2279,0.228,0.2281,0,0,0,0,0,0,0,0,0,0,0,0,0,0.1968,0.197,0.2079,0.208,0.2081,0.2143,0.2144,0.2144,0.22,0.2201,0.2202,0.2203,0.2279,0.228,0.2281,0,0,0,0,0,0,0,0,0,0,0,0,0,0.202,0.1971,0.2079,0.2118,0.2123,0.2143,0.2144,0.2144,0.2199,0.2201,0.2202,0.2203,0.2278,0.228,0.2282,0.2266,0,0,0.2287,0.2288,0,0,0,0,0,0,0,0,0.2017,0.2024,0.2111,0.2116,0.2121,0.2167,0.2133,0.2187,0.2199,0.2167,0.2203,0.2204,0.2244,0.2248,0.2253,0.227,0.2273,0.2287,0.2288,0.2289,0.229,0,0,0,0,0,0,0,0.2014,0.2021,0.2102,0.2113,0.2118,0.2121,0.2129,0.2143,0.2195,0.217,0.2175,0.2186,0.2246,0.2251,0.2256,0.2274,0.2287,0.2289,0.229,0.2291,0.242,0.2422,0,0,0,0,0,0,0.2012,0.2018,0.21,0.2104,0.2074,0.2122,0.2132,0.2149,0.2195,0.2204,0.2185,0.2189,0.2248,0.2253,0.2258,0.2362,0.2289,0.2291,0.2292,0.2418,0.242,0.2423,0,0,0,0,0,0,0.2009,0.2019,0.2097,0.2064,0.2075,0.2123,0.2141,0.2149,0.22,0.2207,0.2216,0.2233,0.2249,0.2256,0.2315,0.2361,0.2292,0.2293,0.2415,0.2418,0.2422,0.2493,0,0,0,0,0,0,0.2006,0.2018,0.2047,0.2064,0.2077,0.2138,0.2141,0.215,0.2203,0.221,0.225,0.2256,0.225,0.2312,0.2316,0.2363,0.2295,0.2412,0.2416,0.2421,0.2488,0.2499,0.2508,0,0,0,0,0,0.2002,0.2029,0.2048,0.206,0.211,0.214,0.2147,0.2182,0.2205,0.2232,0.2266,0.2257,0.2343,0.2315,0.232,0.2368,0.241,0.2415,0.242,0.2483,0.2497,0.2508,0,0,0,0,0,0,0.1994,0.2038,0.206,0.21,0.2134,0.2151,0.2186,0.2207,0.2254,0.2276,0.2281,0.2289,0.2359,0.2355,0.2324,0.242,0.2377,0.2384,0.2424,0.2436,0.2446,0.2438,0.2296,0,0,0,0,0,0.2006,0.2048,0.2078,0.2118,0.2138,0.2171,0.2196,0.2222,0.2256,0.228,0.2308,0.2343,0.2376,0.2401,0.2425,0.2473,0.2472,0.251,0.252,0.2528,0.2527,0.2573,0.2586,0.244,0.244,0.244,0,0,0.2015,0.2046,0.2071,0.2121,0.2152,0.2184,0.2191,0.2243,0.228,0.2279,0.2353,0.2381,0.2398,0.2455,0.2487,0.2464,0.2573,0.2535,0.2542,0.2536,0.258,0.2594,0.2606,0.2444,0.2443,0.2443,0,0,0.2033,0.2083,0.2116,0.2149,0.2206,0.2225,0.2251,0.2296,0.2334,0.2396,0.2412,0.2469,0.2518,0.2539,0.2553,0.2633,0.2625,0.2654,0.2698,0.2744,0.2756,0.2766,0.2792,0.2804,0.2658,0.2659,0.2659,0,0.2044,0.2087,0.213,0.2165,0.2199,0.2248,0.2283,0.2323,0.2385,0.242,0.2436,0.2533,0.2553,0.2614,0.2649,0.2655,0.2675,0.2648,0.2756,0.2766,0.2775,0.2799,0.2811,0.2663,0.2662,0.2662,0.2661,0,0.2068,0.2119,0.2144,0.2207,0.2248,0.2292,0.2344,0.2402,0.2458,0.2493,0.2587,0.262,0.2677,0.2701,0.2701,0.2785,0.2777,0.2762,0.2719,0.2794,0.2815,0.2826,0.2669,0.2667,0.2666,0.2665,0,0,0.2043,0.2142,0.2154,0.219,0.2277,0.2304,0.2384,0.2453,0.2507,0.2587,0.2655,0.273,0.2765,0.2784,0.2804,0.2845,0.2936,0.2843,0.2843,0.2859,0.3037,0.2858,0.2853,0.295,0.2952,0.2954,0.3027,0,0.205,0.2116,0.2169,0.2237,0.2273,0.2349,0.2411,0.2488,0.2561,0.2641,0.2707,0.2782,0.2792,0.2837,0.2885,0.2926,0.297,0.2917,0.297,0.2971,0.2795,0.2861,0.2961,0.3035,0.3038,0.304,0.3041,0,0.2044,0.2094,0.216,0.2253,0.2277,0.2331,0.2441,0.2506,0.2626,0.2685,0.2779,0.2832,0.2929,0.2918,0.3029,0.3003,0.3031,0.305,0.3053,0.2863,0.2813,0.2945,0.3061,0.306,0.3058,0.3057,0.3056,0,0.1985,0.2082,0.2137,0.217,0.2282,0.2339,0.2412,0.253,0.2593,0.273,0.2795,0.29,0.2977,0.3035,0.3101,0.3081,0.3202,0.317,0.3032,0.302,0.3126,0.3114,0.3239,0.3239,0.3239,0.3239,0.3238,0,0.1949,0.1996,0.2121,0.2149,0.222,0.2319,0.2411,0.2496,0.2623,0.2695,0.2826,0.2887,0.3017,0.3101,0.3131,0.3119,0.3234,0.3043,0.3027,0.3156,0.3146,0.3134,0.3121,0.3241,0.3241,0.324,0.324,0,0.187,0.1954,0.2021,0.2151,0.2196,0.2254,0.2404,0.246,0.2604,0.2705,0.2757,0.2915,0.3015,0.3115,0.3212,0.3141,0.3152,0.312,0.3262,0.3253,0.2928,0.2919,0.2949,0.2943,0.2938,0.2934,0.2931,0,0.183,0.1862,0.2006,0.205,0.2117,0.2221,0.2286,0.2435,0.2495,0.2692,0.2721,0.288,0.2967,0.2959,0.3075,0.3111,0.3084,0.3062,0.2973,0.2917,0.2901,0.2898,0.2895,0.2923,0.2922,0.2921,0.2919,0,0.1754,0.1827,0.1885,0.1976,0.2055,0.2119,0.2229,0.2249,0.2416,0.2569,0.2615,0.2666,0.2773,0.2837,0.2897,0.2916,0.3053,0.301,0.3019,0.2936,0.2886,0.2874,0.2877,0.2903,0.2905,0.2907,0.2908,0,0.1706,0.1728,0.182,0.1878,0.1969,0.199,0.2059,0.2122,0.2192,0.2399,0.2409,0.2582,0.2734,0.2738,0.2792,0.28,0.275,0.2649,0.2676,0.2696,0.2581,0.2479,0.2359,0,0,0,0,0,0.1643,0.1655,0.171,0.1764,0.1846,0.1893,0.2005,0.2076,0.2233,0.2202,0.2293,0.2375,0.244,0.2532,0.2491,0.2696,0.2774,0.2637,0.2673,0.281,0.2829,0.2719,0,0,0,0,0,0,0.1603,0.1657,0.1668,0.1652,0.1667,0.1732,0.1793,0.1898,0.1886,0.2057,0.2106,0.2238,0.2345,0.2446,0.245,0.2479,0.2453,0.2748,0.2742,0.2799,0.2817,0.2832,0.2725,0,0,0,0,0]},{"header":{"parameterUnit":"m.s-1","parameterCategory":2,"la1":30.2991,"la2":30.254,"lo1":-89.0895,"lo2":-89.0444,"dy":0.0017,"dx":0.0017,"nx":28,"ny":28,"refTime":"2024-04-09T09:00:00:Z","depth":"4","parameterNumber":3,"parameterNumberName":"V-component_of_CURRENTS"},"data":[0,0,0,0,0,0,0,0,0,0,0,0,0,0,0,0,0,0,0,0,0,0,0,0,0,0,0,0,0,0,0,0,0,0,0,0,0,0,0,0,0,0,0,0,0,0,0,0,0,0,0,0,0,0,0,0,0,0,-0.0039,-0.004,0,-0.0095,-0.0096,-0.0097,-0.0126,-0.0126,-0.0126,-0.0126,-0.0221,-0.0224,-0.0227,0,0,0,0,0,0,0,0,0,0,0,0,0,-0.0016,-0.0016,-0.0039,-0.004,-0.004,-0.0095,-0.0096,-0.0097,-0.0126,-0.0126,-0.0126,-0.0126,-0.0221,-0.0224,-0.0227,0,0,0,0,0,0,0,0,0,0,0,0,0,-0.0045,-0.0016,-0.0039,-0.0061,-0.0063,-0.0095,-0.0096,-0.0097,-0.0126,-0.0126,-0.0126,-0.0126,-0.022,-0.0223,-0.0227,-0.0253,0,0,-0.0239,-0.0241,0,0,0,0,0,0,0,0,-0.0043,-0.0046,-0.0057,-0.0059,-0.0062,-0.0103,-0.0123,-0.0151,-0.0126,-0.0104,-0.0126,-0.0126,-0.0185,-0.0191,-0.0203,-0.0257,-0.0261,-0.0239,-0.0242,-0.0243,-0.0245,0,0,0,0,0,0,0,-0.0041,-0.0044,-0.0063,-0.0058,-0.0061,-0.0088,-0.0091,-0.0128,-0.0146,-0.0106,-0.0108,-0.0112,-0.0186,-0.0199,-0.0206,-0.0263,-0.0239,-0.0243,-0.0245,-0.0247,-0.0334,-0.0334,0,0,0,0,0,0,-0.0029,-0.0042,-0.0061,-0.0064,-0.0051,-0.0088,-0.0092,-0.0091,-0.0144,-0.0152,-0.0112,-0.0113,-0.0193,-0.0201,-0.0209,-0.0224,-0.0243,-0.0247,-0.0249,-0.0334,-0.0334,-0.0334,0,0,0,0,0,0,-0.0028,-0.003,-0.0059,-0.0054,-0.0059,-0.0088,-0.0086,-0.0092,-0.0102,-0.0149,-0.0157,-0.0115,-0.0193,-0.0204,-0.0234,-0.0228,-0.0249,-0.0252,-0.0334,-0.0334,-0.0334,-0.0265,0,0,0,0,0,0,-0.0027,-0.0029,-0.0026,-0.0053,-0.0059,-0.0073,-0.0087,-0.0093,-0.0104,-0.0106,-0.0155,-0.0163,-0.0194,-0.0228,-0.0238,-0.0234,-0.0255,-0.0334,-0.0334,-0.0334,-0.0267,-0.0262,-0.0258,0,0,0,0,0,-0.0026,-0.0022,-0.0025,-0.0028,-0.0053,-0.0072,-0.0078,-0.01,-0.0104,-0.0108,-0.0136,-0.0162,-0.0235,-0.0231,-0.0243,-0.024,-0.0334,-0.0334,-0.0334,-0.0269,-0.0263,-0.0258,0,0,0,0,0,0,-0.0015,-0.0025,-0.003,-0.003,-0.0046,-0.0077,-0.0083,-0.0095,-0.0121,-0.0121,-0.0163,-0.0175,-0.0199,-0.0231,-0.0226,-0.0266,-0.0288,-0.0291,-0.0235,-0.023,-0.0226,-0.0209,-0.0259,0,0,0,0,0,-0.0009,-0.0005,-0.0024,-0.0024,-0.0029,-0.0054,-0.0064,-0.0076,-0.0101,-0.0112,-0.0144,-0.0179,-0.021,-0.0228,-0.0262,-0.0285,-0.0312,-0.0291,-0.0287,-0.0283,-0.0277,-0.0312,-0.031,-0.0333,-0.0333,-0.0333,0,0,-0.0005,-0.001,-0.0008,-0.0021,-0.0035,-0.0039,-0.006,-0.007,-0.0073,-0.012,-0.0134,-0.0166,-0.0213,-0.0235,-0.0249,-0.026,-0.029,-0.0283,-0.0279,-0.0275,-0.0312,-0.0309,-0.0307,-0.0333,-0.0333,-0.0333,0,0,0.0005,0.0002,0.0008,0.0001,-0.0013,-0.0027,-0.0026,-0.005,-0.0059,-0.0077,-0.0108,-0.0135,-0.0184,-0.0212,-0.0234,-0.023,-0.0266,-0.024,-0.0204,-0.0237,-0.0235,-0.0234,-0.0257,-0.0258,-0.0237,-0.0237,-0.0237,0,0.0009,0.0017,0.0005,0.0009,0.0007,-0.0017,-0.0011,-0.0026,-0.0056,-0.0058,-0.0073,-0.0132,-0.0174,-0.0196,-0.0193,-0.0219,-0.0238,-0.0216,-0.023,-0.0229,-0.0229,-0.0253,-0.0256,-0.0234,-0.0234,-0.0234,-0.0235,0,0.0022,0.003,0.0033,0.0035,0.0031,0.0031,0.0016,0.0013,0.0001,-0.0014,-0.0034,-0.0087,-0.0117,-0.0137,-0.0165,-0.018,-0.0194,-0.0219,-0.0238,-0.0222,-0.0249,-0.0253,-0.0229,-0.023,-0.0231,-0.0232,0,0,0.0024,0.0041,0.0041,0.0056,0.0049,0.0049,0.0052,0.0048,0.0063,0.0026,0.0035,-0.0024,-0.0042,-0.0068,-0.0107,-0.0138,-0.0156,-0.0169,-0.0173,-0.0182,-0.0217,-0.022,-0.0224,-0.0178,-0.0179,-0.0179,-0.0234,0,0.0037,0.006,0.0061,0.0085,0.0097,0.009,0.0101,0.0097,0.0089,0.0092,0.0044,0.0034,-0.0019,-0.0023,-0.0064,-0.013,-0.0163,-0.0138,-0.024,-0.0243,-0.0239,-0.0228,-0.018,-0.0236,-0.0237,-0.0238,-0.0238,0,0.0048,0.0065,0.0093,0.0128,0.0134,0.0145,0.017,0.018,0.0177,0.0172,0.0152,0.012,0.0077,0.003,-0.0075,-0.0053,-0.0128,-0.0185,-0.0189,-0.0218,-0.0252,-0.026,-0.0246,-0.0245,-0.0244,-0.0244,-0.0244,0,0.0059,0.0089,0.0118,0.0127,0.0156,0.0176,0.0195,0.0206,0.0234,0.0233,0.0251,0.0187,0.0172,0.0068,-0.0048,-0.0059,-0.0164,-0.0199,-0.0274,-0.0275,-0.0287,-0.0288,-0.0278,-0.0278,-0.0278,-0.0278,-0.0278,0,0.0071,0.0094,0.0131,0.0147,0.0198,0.021,0.0261,0.0275,0.0307,0.035,0.0301,0.0313,0.0182,0.0109,-0.0018,-0.0147,-0.0145,-0.0262,-0.0289,-0.0256,-0.0253,-0.0289,-0.0289,-0.028,-0.0279,-0.0279,-0.0279,0,0.0076,0.0097,0.0138,0.0183,0.0206,0.0245,0.0317,0.0357,0.0383,0.0439,0.0448,0.0415,0.0323,0.0183,0.0022,-0.0091,-0.0227,-0.0279,-0.0215,-0.0239,-0.0324,-0.0321,-0.0365,-0.0366,-0.0366,-0.0367,-0.0367,0,0.0081,0.0103,0.0169,0.0204,0.0228,0.0289,0.0339,0.0391,0.0436,0.0497,0.0524,0.0479,0.0427,0.0218,0.0049,-0.018,-0.0226,-0.0299,-0.0332,-0.0311,-0.0333,-0.0329,-0.0325,-0.0368,-0.0368,-0.0368,-0.0368,0,0.0092,0.0115,0.0151,0.0224,0.0283,0.0351,0.0423,0.0471,0.0538,0.0566,0.06,0.0511,0.0413,0.0235,0.0067,-0.0109,-0.0253,-0.0305,-0.0306,-0.0338,-0.0315,-0.0335,-0.0331,-0.0369,-0.0369,-0.0369,-0.0369,0,0.0103,0.0125,0.0174,0.0237,0.0314,0.0388,0.0432,0.0498,0.0557,0.0628,0.0636,0.0546,0.05,0.0272,0.0109,-0.0051,-0.0111,-0.0188,-0.0196,-0.0197,-0.0142,-0.0088,-0.0089,0,0,0,0,0,0.0107,0.0125,0.0183,0.025,0.0327,0.0366,0.0475,0.0517,0.059,0.0626,0.0639,0.0552,0.0358,0.0278,0.0117,0.0058,-0.0169,-0.0141,-0.0269,-0.0378,-0.0376,-0.0343,0,0,0,0,0,0,0.0107,0.0151,0.0171,0.0245,0.0287,0.0373,0.0443,0.0501,0.0523,0.0582,0.0489,0.0474,0.0283,0.0439,0.0098,0.0053,-0.0058,-0.0223,-0.0228,-0.0379,-0.0377,-0.0376,-0.0341,0,0,0,0,0]}]]